Location: Perryvale
(54.4667°N, 113.3833°W)
Time: 22:40:55
(UTC+00:00)

Vanguard 1 - Pass Details

Date: 23 May 2024
Orbit: 652 x 3825 km, 34.2° (Epoch: 13 June)

Event Time Altitude Azimuth Distance (km) Brightness Sun altitude
Rises 08:19:13 0° 263° (W) 5,864 13.8 -14.1°
Reaches altitude 10° 08:23:17 10° 253° (WSW) 5,278 13.5 -14.0°
Maximum altitude 08:36:31 30° 201° (SSW) 4,866 13.0 -13.5°
Drops below altitude 10° 08:53:56 10° 152° (SSE) 6,919 14.0 -12.7°
Sets 09:00:31 0° 143° (SE) 7,920 14.4 -12.4°
